When you browse on this site, cookies collect data to enhance your experience and personalize the content and advertising you see.
Visit our Privacy Policy to learn more. By continuing to use the site, you agree to this use of cookies and data.
  • In France
  • List of Countries
  • For 7 days
  • Water Temperature
  • Satellite Maps
  • Weather Map
  • Weather Widgets
  • user-avatar
    Login

    Hourly Weather Nzérékoré

    Today, 22 May, Wednesday

    Time Temperature Precipitation Wind Pressure Humidity
    00:00 +27°C° 0 mm 0 mps 744 mmHg 72%
    01:00 +27°C° 0 mm 0 mps 744 mmHg 72%
    02:00 +26°C° 0 mm 0 mps 744 mmHg 73%
    03:00 +28°C° 0 mm 1 mps 744 mmHg 74%
    04:00 +28°C° 0 mm 1 mps 743 mmHg 74%
    05:00 +28°C° 0.4 mm 1 mps 744 mmHg 76%
    06:00 +28°C° 0.4 mm 1 mps 744 mmHg 78%
    07:00 +26°C° 0.4 mm 0 mps 744 mmHg 80%
    08:00 +30°C° 0.1 mm 1 mps 745 mmHg 73%
    09:00 +31°C° 0.1 mm 1 mps 745 mmHg 67%
    10:00 +33°C° 0.1 mm 1 mps 745 mmHg 60%
    11:00 +35°C° 0 mm 1 mps 745 mmHg 53%
    12:00 +37°C° 0 mm 1 mps 744 mmHg 47%
    13:00 +39°C° 0 mm 1 mps 744 mmHg 40%
    14:00 +39°C° 0 mm 1 mps 743 mmHg 40%
    15:00 +39°C° 0 mm 1 mps 742 mmHg 39%
    16:00 +36°C° 0 mm 0 mps 742 mmHg 39%
    17:00 +36°C° 0 mm 1 mps 742 mmHg 42%
    18:00 +35°C° 0 mm 1 mps 742 mmHg 45%
    19:00 +34°C° 0 mm 1 mps 742 mmHg 48%
    20:00 +33°C° 0.1 mm 1 mps 743 mmHg 53%
    21:00 +32°C° 0.1 mm 2 mps 743 mmHg 57%
    22:00 +31°C° 0.1 mm 3 mps 744 mmHg 62%
    23:00 +30°C° 0.9 mm 2 mps 744 mmHg 69%

    Tomorrow, 23 May, Thursday

    Time Temperature Precipitation Wind Pressure Humidity
    00:00 +29°C° 0.9 mm 2 mps 744 mmHg 77%
    01:00 +28°C° 0.9 mm 2 mps 744 mmHg 84%
    02:00 +27°C° 0 mm 2 mps 744 mmHg 85%
    03:00 +27°C° 0 mm 2 mps 743 mmHg 85%
    04:00 +27°C° 0 mm 2 mps 743 mmHg 86%
    05:00 +27°C° 0 mm 2 mps 743 mmHg 86%
    06:00 +27°C° 0 mm 2 mps 744 mmHg 86%
    07:00 +28°C° 0 mm 2 mps 744 mmHg 85%
    08:00 +30°C° 0 mm 2 mps 744 mmHg 77%
    09:00 +31°C° 0 mm 2 mps 745 mmHg 69%
    10:00 +34°C° 0 mm 3 mps 745 mmHg 60%
    11:00 +36°C° 0 mm 3 mps 744 mmHg 55%
    12:00 +37°C° 0 mm 3 mps 744 mmHg 50%
    13:00 +39°C° 0 mm 3 mps 743 mmHg 45%
    14:00 +39°C° 0 mm 3 mps 742 mmHg 43%
    15:00 +39°C° 0 mm 3 mps 741 mmHg 41%
    16:00 +39°C° 0 mm 2 mps 740 mmHg 39%
    17:00 +38°C° 0 mm 2 mps 741 mmHg 43%
    18:00 +36°C° 0 mm 2 mps 741 mmHg 48%
    19:00 +35°C° 0 mm 2 mps 741 mmHg 52%
    20:00 +34°C° 0.2 mm 3 mps 742 mmHg 56%
    21:00 +33°C° 0.2 mm 3 mps 743 mmHg 61%
    22:00 +32°C° 0.2 mm 4 mps 744 mmHg 65%
    23:00 +30°C° 0.6 mm 4 mps 743 mmHg 72%

    Day after tomorrow, 24 May, Friday

    Time Temperature Precipitation Wind Pressure Humidity
    00:00 +29°C° 0.6 mm 3 mps 743 mmHg 79%
    01:00 +28°C° 0.6 mm 3 mps 743 mmHg 85%
    02:00 +28°C° 1.8 mm 3 mps 743 mmHg 87%
    03:00 +27°C° 1.8 mm 2 mps 743 mmHg 88%
    04:00 +27°C° 1.8 mm 2 mps 743 mmHg 90%
    05:00 +27°C° 0 mm 2 mps 743 mmHg 90%
    06:00 +27°C° 0 mm 2 mps 744 mmHg 89%
    07:00 +28°C° 0 mm 1 mps 744 mmHg 89%
    08:00 +29°C° 0 mm 2 mps 745 mmHg 82%
    09:00 +30°C° 0 mm 2 mps 745 mmHg 76%
    10:00 +33°C° 0 mm 3 mps 746 mmHg 69%
    11:00 +34°C° 0 mm 3 mps 745 mmHg 63%
    12:00 +36°C° 0 mm 3 mps 744 mmHg 56%
    13:00 +37°C° 0 mm 3 mps 744 mmHg 49%
    14:00 +38°C° 0 mm 3 mps 743 mmHg 46%
    15:00 +38°C° 0 mm 3 mps 742 mmHg 44%
    16:00 +39°C° 0 mm 2 mps 741 mmHg 41%
    17:00 +37°C° 0 mm 2 mps 741 mmHg 46%
    18:00 +36°C° 0 mm 3 mps 742 mmHg 50%
    19:00 +34°C° 0 mm 3 mps 742 mmHg 55%
    20:00 +34°C° 0 mm 3 mps 742 mmHg 57%
    21:00 +33°C° 0 mm 3 mps 743 mmHg 59%
    22:00 +33°C° 0 mm 3 mps 743 mmHg 61%
    23:00 +31°C° 0.3 mm 3 mps 744 mmHg 67%

    25 May, Saturday

    Time Temperature Precipitation Wind Pressure Humidity
    00:00 +30°C° 0.3 mm 2 mps 744 mmHg 72%
    01:00 +29°C° 0.3 mm 2 mps 744 mmHg 77%
    02:00 +29°C° 0.1 mm 2 mps 744 mmHg 80%
    03:00 +28°C° 0.1 mm 2 mps 744 mmHg 83%
    04:00 +28°C° 0.1 mm 2 mps 743 mmHg 86%
    05:00 +28°C° 0 mm 2 mps 744 mmHg 86%
    06:00 +28°C° 0 mm 2 mps 744 mmHg 86%
    07:00 +28°C° 0 mm 2 mps 745 mmHg 87%
    08:00 +28°C° 0 mm 2 mps 745 mmHg 84%
    09:00 +29°C° 0 mm 3 mps 745 mmHg 81%
    10:00 +29°C° 0 mm 3 mps 746 mmHg 79%
    11:00 +30°C° 0.1 mm 3 mps 745 mmHg 75%
    12:00 +31°C° 0.1 mm 3 mps 744 mmHg 71%
    13:00 +32°C° 0.1 mm 2 mps 744 mmHg 67%
    14:00 +31°C° 0.1 mm 2 mps 743 mmHg 67%
    15:00 +31°C° 0.1 mm 2 mps 742 mmHg 67%
    16:00 +31°C° 0.1 mm 1 mps 742 mmHg 68%
    17:00 +31°C° 0 mm 1 mps 742 mmHg 69%
    18:00 +30°C° 0 mm 1 mps 742 mmHg 71%
    19:00 +29°C° 0 mm 1 mps 743 mmHg 73%
    20:00 +29°C° 0 mm 1 mps 743 mmHg 70%
    21:00 +29°C° 0 mm 1 mps 744 mmHg 67%
    22:00 +29°C° 0 mm 1 mps 744 mmHg 64%
    23:00 +29°C° 0 mm 2 mps 744 mmHg 66%

    26 May, Sunday

    Time Temperature Precipitation Wind Pressure Humidity
    00:00 +28°C° 0 mm 2 mps 743 mmHg 69%
    01:00 +28°C° 0 mm 2 mps 743 mmHg 71%
    02:00 +28°C° 0 mm 2 mps 743 mmHg 75%
    03:00 +27°C° 0 mm 1 mps 743 mmHg 79%
    04:00 +27°C° 0 mm 1 mps 743 mmHg 84%
    05:00 +27°C° 0 mm 1 mps 744 mmHg 84%
    06:00 +27°C° 0 mm 2 mps 744 mmHg 84%
    07:00 +28°C° 0 mm 2 mps 745 mmHg 84%
    08:00 +29°C° 0 mm 2 mps 745 mmHg 78%
    09:00 +30°C° 0 mm 2 mps 745 mmHg 72%
    10:00 +32°C° 0 mm 2 mps 745 mmHg 66%
    11:00 +34°C° 0 mm 2 mps 744 mmHg 61%
    12:00 +35°C° 0 mm 2 mps 744 mmHg 56%
    13:00 +36°C° 0 mm 2 mps 743 mmHg 51%
    14:00 +37°C° 0 mm 2 mps 742 mmHg 49%
    15:00 +38°C° 0 mm 2 mps 741 mmHg 46%
    16:00 +37°C° 0 mm 1 mps 741 mmHg 43%
    17:00 +36°C° 0 mm 1 mps 741 mmHg 46%
    18:00 +34°C° 0 mm 1 mps 741 mmHg 50%
    19:00 +33°C° 0 mm 1 mps 742 mmHg 54%
    20:00 +32°C° 0.4 mm 1 mps 742 mmHg 60%
    21:00 +31°C° 0.4 mm 2 mps 743 mmHg 65%
    22:00 +30°C° 0.4 mm 2 mps 743 mmHg 71%
    23:00 +29°C° 0.3 mm 3 mps 743 mmHg 76%

    27 May, Monday

    Time Temperature Precipitation Wind Pressure Humidity
    00:00 +28°C° 0.3 mm 3 mps 743 mmHg 80%
    01:00 +28°C° 0.3 mm 3 mps 743 mmHg 84%
    02:00 +28°C° 0 mm 3 mps 743 mmHg 85%
    03:00 +28°C° 0 mm 3 mps 743 mmHg 86%
    04:00 +27°C° 0 mm 2 mps 743 mmHg 87%
    05:00 +27°C° 0 mm 2 mps 743 mmHg 88%
    06:00 +27°C° 0 mm 2 mps 744 mmHg 88%
    07:00 +27°C° 0 mm 2 mps 744 mmHg 88%
    08:00 +28°C° 0 mm 2 mps 745 mmHg 85%
    09:00 +29°C° 0 mm 2 mps 745 mmHg 81%
    10:00 +30°C° 0 mm 3 mps 745 mmHg 77%
    11:00 +33°C° 0 mm 3 mps 744 mmHg 69%
    12:00 +34°C° 0 mm 3 mps 744 mmHg 62%
    13:00 +36°C° 0 mm 3 mps 743 mmHg 55%
    14:00 +37°C° 0 mm 3 mps 742 mmHg 51%
    15:00 +37°C° 0 mm 3 mps 742 mmHg 48%
    16:00 +38°C° 0 mm 2 mps 741 mmHg 45%
    17:00 +37°C° 0 mm 2 mps 741 mmHg 49%
    18:00 +35°C° 0 mm 2 mps 742 mmHg 54%
    19:00 +34°C° 0 mm 2 mps 742 mmHg 58%
    20:00 +33°C° 0.1 mm 3 mps 742 mmHg 61%
    21:00 +32°C° 0.1 mm 4 mps 743 mmHg 65%
    22:00 +30°C° 0.1 mm 4 mps 743 mmHg 68%
    23:00 +30°C° 0.9 mm 3 mps 743 mmHg 73%
    Show more